Hourly Data Report for August 21, 2001

SHERBROOKE A
QUEBEC

45°26'00.000" N
71°41'00.000" W
241.40 m
7028124
71610
YSC

Download Data

Hourly Data (August 2001)
Hourly Data Report for August 21, 2001
TIME
LST
Temp Definition
°C
Dew Point Definition
°C
Rel Hum Definition
%
Precip. Amount Definition
mm

Wind Dir Definition
10's deg

Wind Spd Definition
km/h
Visibility Definition
km
Stn Press Definition
kPa
Hmdx Definition


Wind Chill Definition


Weather Definition


00:00 17.4 16.4 94     0 15.0 98.49      
01:00 17.0 16.0 94     0 15.0 98.48      
02:00 17.4 16.3 93   9 7 15.0 98.44      
03:00 17.3 16.0 92   13 7 15.0 98.44      
04:00 16.7 15.8 94   9 6 15.0 98.44      
05:00 16.5 15.8 96   5 4 15.0 98.45     Rain
06:00 16.8 16.3 97     0 15.0 98.47      
07:00 17.7 16.6 93     0 19.3 98.50     Mostly Cloudy
08:00 20.0 18.0 88   22 4 24.1 98.51 26   Mostly Cloudy
09:00 22.3 18.9 81   23 9 24.1 98.49 29   Mostly Cloudy
10:00 24.1 18.9 73   22 7 24.1 98.47 31   Mostly Cloudy
11:00 23.8 18.3 71   26 15 24.1 98.46 30   Mostly Cloudy
12:00 23.7 18.5 73   30 7 24.1 98.43 30   Mostly Cloudy
13:00 23.0 18.0 73   27 13 24.1 98.42 29   Mostly Cloudy
14:00 21.0 19.1 89   14 4 16.1 98.45 28   Rain Showers
15:00 23.2 18.5 75   10 6 24.1 98.42 30   Mostly Cloudy
16:00 23.0 18.8 77   16 9 19.3 98.41 30   Mostly Cloudy
17:00 21.1 18.0 82   20 6 15.0 98.44 27    
18:00 19.7 18.6 93   29 4 6.4 98.47     Rain
19:00 18.4 17.7 96   32 4 4.8 98.48      
20:00 17.1 16.6 97   13 4 0.3 98.52      
21:00 16.9 16.5 97   18 4 0.2 98.53      
22:00 15.2 15.2 100     0 0.2 98.55      
23:00 14.9 14.7 99     0 0.2 98.56      

Notes on Data Quality.

Legend

  • E = Estimated
  • M = Missing
  • NA = Not Available*
  • [empty] = Indicates an unobserved value
Date modified: